LIMFLIMJ

Guest
Details From LIMF - Torino Caselle
To LIMJ - Genova Sestri
Flight Number -
Tags decoded
Created
Modified
Stats Distance 69 nm / 129 km
Max Altitude 0 ft / 0 m
Waypoints 2
Social Downloads 1
Likes 0
Share VATSIM

Download

Looking for another format? Having issues loading an existing format? Contact us
Advertisement - Login to hide

Notes

Requested: LIMF LIMJ

Route

LIMF LIMJ

ID Type Via Altitude Latitude Longitude Leg Dist Tot Dist Heading (true) Name
O LIMF APT - 0 ft / 0 m 45.20076˚ 7.64963˚ - 0 nm - Torino Caselle
O LIMJ APT - 0 ft / 0 m 44.41196˚ 8.84187˚ 69 nm 69 nm 133° / 133° Genova Sestri

Altitude Profile

Advertisement - Login to hide

LIMF

Details ICAO LIMF (TRN)
Name Torino Caselle
Region Italy
Timezone Europe/Rome (UTC+2.0)
Stats Elevation 989 ft / 301 m (AMSL)
Location 45.200763° 7.649630°
Runways 1
Magnetic Variation 2.173° E

METAR

LIMF 231250Z VRB04KT 9999 FEW030 SCT100 22/15 Q1017

Decode

TAF

TAF LIMF 231100Z 2312/2412 VRB05KT 9999 SCT060

Decode

Departure Runways

ID Width Length Bearing (true) Bearing (mag) Surface Threshold Offset Overrun Length
18 197 ft / 60 m 10,835 ft / 3,303 m 182.56° 180.39° Asphalt 2,378 ft / 725 m 970 ft / 296 m
36 197 ft / 60 m 10,835 ft / 3,303 m 2.56° 0.39° Asphalt 1,148 ft / 350 m 0 ft / 0 m

LIMJ

Details ICAO LIMJ (GOA)
Name Genova Sestri
Region Italy
Timezone Unknown (UTC+0.0)
Stats Elevation 13 ft / 4 m (AMSL)
Location 44.411957° 8.841866°
Runways 1
Magnetic Variation 2.437° E

METAR

LIMJ 231250Z 27008KT 240V300 9999 FEW032TCU FEW035 22/17 Q1016

Decode

TAF

TAF LIMJ 231100Z 2312/2412 VRB05KT 9999 SCT025 SCT060 TEMPO 2312/2318 23010KT

Decode

Destination Runways

ID Width Length Bearing (true) Bearing (mag) Surface Threshold Offset Overrun Length
10 148 ft / 45 m 9,574 ft / 2,918 m 105.39° 102.95° Asphalt 0 ft / 0 m 0 ft / 0 m
28 148 ft / 45 m 9,574 ft / 2,918 m 285.41° 282.97° Asphalt 538 ft / 164 m 0 ft / 0 m

Approach Navaids

Runway Type Ident Frequency Range Bearing (true) Bearing (mag) Slope Elevation
28 Localiser GSE 109.30 MHz 18 nm / 33 km 287.30° 284.86° - 9 ft / 3 m (AMSL)
28 Glidescope GSE 109.30 MHz 10 nm / 19 km 287.30° 284.86° 3.17° 26 ft / 8 m (AMSL)
28 DME GSE 109.30 MHz 18 nm / 33 km - - - 26 ft / 8 m (AMSL)

Popular Alternatives